This is the latest recevied weather packets stored in our database for station/object W6DSP. If no packets are shown the sender has not sent any weather packets the latest 10 day(s).
| Time | Temp. | Humidity | Pressure | Rain* | Wind** | Luminosity | Snow |
|---|---|---|---|---|---|---|---|
| 1778083057 | 12.78° C | 45% | 1014.5 hPa | 0 mm | - | - | - |
| 1778082351 | 12.78° C | 50% | 1014.7 hPa | 0 mm | - | - | - |
| 1778081657 | 12.78° C | 45% | 1014.6 hPa | 0 mm | - | - | - |
| 1778080961 | 12.78° C | 48% | 1014.6 hPa | 0 mm | - | - | - |
| 1778080218 | 12.22° C | 45% | 1014.6 hPa | 0 mm | - | - | - |
| 1778079483 | 12.78° C | 53% | 1014.5 hPa | 0 mm | - | - | - |
| 1778078747 | 12.22° C | 51% | 1014.3 hPa | 0 mm | - | - | - |
| 1778078042 | 11.67° C | 50% | 1014.3 hPa | 0 mm | - | - | - |
| 1778077323 | 11.11° C | 57% | 1014.2 hPa | 0 mm | - | - | - |
| 1778076619 | 11.11° C | 51% | 1014 hPa | 0 mm | - | - | - |
| 1778075924 | 11.11° C | 58% | 1013.8 hPa | 0 mm | - | - | - |
| 1778075209 | 10.56° C | 56% | 1013.7 hPa | 0 mm | - | - | - |
| 1778074457 | 10.56° C | 58% | 1013.7 hPa | 0 mm | - | - | - |
| 1778073720 | 9.44° C | 64% | 1013.5 hPa | 0 mm | - | - | - |
| 1778073011 | 9.44° C | 63% | 1013.5 hPa | 0 mm | - | - | - |
| 1778072296 | 8.89° C | 65% | 1013.4 hPa | 0 mm | - | - | - |
| 1778071535 | 8.33° C | 68% | 1013 hPa | 0 mm | - | - | - |
| 1778070840 | 8.33° C | 72% | 1013 hPa | 0 mm | - | - | - |
| 1778070147 | 8.33° C | 75% | 1012.9 hPa | 0 mm | - | - | - |
| 1778069390 | 7.78° C | 85% | 1012.8 hPa | 0 mm | - | - | - |
| 1778068643 | 7.22° C | 90% | 1012.7 hPa | 0 mm | - | - | - |
| 1778067917 | 7.22° C | 91% | 1012.6 hPa | 0 mm | - | - | - |
| 1778067219 | 6.67° C | 91% | 1012.2 hPa | 0 mm | - | - | - |
| 1778066498 | 6.67° C | 91% | 1012.2 hPa | 0 mm | - | - | - |
| 1778065748 | 6.67° C | 90% | 1012 hPa | 0 mm | - | - | - |
* Rain latest hour (hover to see other rain measurements)
** Current wind speed in m/s (hover to see current wind gust speed)